Location: ?????
(37.7324°N, 23.9257°E)
Time: 07:38:15
(UTC+00:00)

SAR-Lupe-1 - Pass Details

Date: 29 November 2020
Orbit: 480 x 485 km, 98.2° (Epoch: 26 November)

Event Time Altitude Azimuth Distance (km) Brightness Sun altitude
Rises 03:57:29 0° 176° (S) 2,526 8.0 -15.9°
Reaches altitude 10° 03:59:34 10° 181° (S) 1,653 6.9 -15.5°
Maximum altitude 04:03:03 53° 259° (W) 600 4.1 -14.8°
Enters shadow 04:05:48 15° 334° (NNW) 1,361 5.9 -14.3°
